Location: Katowice
(50.2670°N, 19.0170°E)
Time: 13:06:11
(UTC+01:00)

N. Korean satellite - Visible Passes

Search period start: 08 December 2022 00:00
Search period end: 18 December 2022 00:00
Orbit: 420 x 452 km, 97.3° (Epoch: 08 December)

Date Brightness Start Highest point End Pass type
(mag) Time Alt. Az. Time Alt. Az. Time Alt. Az.
08 Dec 7.1 04:57:29 10° NNE 05:00:50 53° E 05:04:07 10° S visible
08 Dec 8.2 06:31:10 10° NNW 06:32:55 14° WNW 06:34:40 10° W visible
08 Dec 9.5 17:04:25 10° SW 17:06:51 18° W 17:09:19 10° NW visible
09 Dec 9.2 04:19:04 10° NE 04:21:34 19° E 04:24:01 10° SE visible
09 Dec 7.0 05:51:04 10° N 05:54:09 33° WNW 05:57:12 10° SW visible
09 Dec 7.5 16:24:14 10° S 16:27:33 51° W 16:30:55 10° NNW visible
10 Dec 6.3 05:11:44 10° NNE 05:15:09 82° ESE 05:18:29 10° SSW visible
10 Dec 9.8 17:19:33 10° WSW 17:21:14 13° W 17:22:54 10° WNW visible
11 Dec 8.5 04:32:55 10° NE 04:35:51 26° E 04:38:43 10° SSE visible
11 Dec 7.5 06:05:30 10° NNW 06:08:15 23° WNW 06:10:57 10° WSW visible
11 Dec 8.3 16:38:37 10° SSW 16:41:45 34° W 16:44:55 10° NNW visible
12 Dec 6.2 05:25:50 10° N 05:29:12 66° WNW 05:32:31 10° SSW visible
13 Dec 7.8 04:46:42 10° NNE 04:49:54 38° E 04:53:01 10° SSE visible
13 Dec 7.9 06:19:51 10° NNW 06:22:07 17° WNW 06:24:21 10° WSW visible
13 Dec 9.1 16:52:56 10° SSW 16:55:45 24° W 16:58:36 10° NW visible
14 Dec 9.6 04:11:15 13° ESE 04:11:15 13° ESE 04:12:09 10° SE visible
14 Dec 7.6 05:39:49 10° N 05:44:38 24° SW 05:46:13 10° SW visible
14 Dec 6.8 16:12:54 10° S 16:16:17 72° WSW 16:19:42 10° NNW visible
15 Dec 8.2 05:00:23 10° NNE 05:05:36 22° S 05:06:58 10° S visible
15 Dec 8.5 06:34:14 10° NW 06:39:00 - WSW 06:34:29 11° NW visible
15 Dec 9.6 17:07:15 10° SW 17:09:35 17° W 17:11:56 10° NW visible
16 Dec 9.5 04:26:20 11° SE 04:26:20 11° SE 04:26:34 10° SE visible
16 Dec 8.5 05:53:39 10° N 05:59:43 - SW 05:54:14 14° N visible
16 Dec 7.6 16:26:38 10° S 16:29:56 48° W 16:33:15 10° NNW visible
17 Dec 8.9 05:13:56 10° NNE 05:20:17 12° SSW 05:20:35 10° SSW visible
17 Dec 9.8 17:21:44 10° WSW 17:23:14 12° W 17:24:45 10° WNW visible
